Huntington, WV

11:08 AM EST on December 13, 2019 (GMT -0500)
Tri-State / Ferguson

Weather History for KHTS - October, 2019

Change the Weather History Date:

Wednesday, October 30, 2019

  Actual Average Record
Temperature  
Mean Temperature 58 °F 52 °F  
Max Temperature 63 °F 64 °F 83 °F (1950)
Min Temperature 52 °F 41 °F 23 °F (1965)
Degree Days  
Heating Degree Days 7 13  
Month to date heating degree days 178 267  
Since 1 July heating degree days 178 325  
Cooling Degree Days 0 0  
Month to date cooling degree days 66 16  
Year to date cooling degree days 1511 1127  
Growing Degree Days 8 (Base 50)    
Moisture  
Dew Point 56 °F    
Average Humidity 89    
Maximum Humidity 97    
Minimum Humidity 80    
Precipitation  
Precipitation 0.46 in 0.10 in 1.82 in (1949)
Month to date precipitation 5.15 2.71  
Year to date precipitation 39.62 35.74  
Snow  
Snow 0.00 in 0.00 in 2.20 in (1925)
Month to date snowfall 0.0 0.1  
Since 1 September snowfall 0.0 0.1  
Snow Depth 0.00 in    
Sea Level Pressure  
Sea Level Pressure 30.01 in    
Wind  
Wind Speed 3 mph (ENE)    
Max Wind Speed 8 mph    
Max Gust Speed 11 mph    
Visibility 6 miles    
Events Rain    
T = Trace of Precipitation, MM = Missing Value Source: NWS Daily Summary

Daily Weather History Graph

Daily Weather History Graph

Search for Another Location

Airport or City:

Astronomy

Oct. 30, 2019 Rise Set
Actual Time 7:54 AM EDT 6:33 PM EDT
Civil Twilight 7:26 AM EDT 7:00 PM EDT
Nautical Twilight 6:55 AM EDT 7:31 PM EDT
Astronomical Twilight 6:24 AM EDT 8:02 PM EDT
Moon 10:34 AM EDT (10/30) 8:41 PM EDT (10/30)
Length of Visible Light 11h 33m
Length of Day
10h 38m
Waxing Crescent, 8% of the Moon is Illuminated
Oct 30
Waxing Crescent
Nov 4
First Quarter
Nov 12
Full
Nov 19
Last Quarter
Nov 26
New

Hourly Weather History & Observations

Time (EDT) Temp. Dew Point Humidity Pressure Visibility Wind Dir Wind Speed Gust Speed Precip Events Conditions
12:51 AM 55.9 °F 52.0 °F 87% 30.19 in 10.0 mi ENE 5.8 mph - N/A   Clear
1:51 AM 55.9 °F 52.0 °F 87% 30.17 in 10.0 mi ENE 5.8 mph - N/A   Clear
2:51 AM 54.0 °F 52.0 °F 93% 30.17 in 10.0 mi NNE 4.6 mph - N/A   Clear
3:51 AM 54.0 °F 51.1 °F 90% 30.15 in 10.0 mi NNE 3.5 mph - N/A   Clear
4:51 AM 54.0 °F 51.1 °F 90% 30.13 in 10.0 mi NE 4.6 mph - N/A   Clear
5:51 AM 53.1 °F 51.1 °F 93% 30.15 in 8.0 mi Calm Calm - N/A   Clear
6:51 AM 52.0 °F 50.0 °F 93% 30.13 in 8.0 mi Calm Calm - N/A   Clear
7:51 AM 52.0 °F 50.0 °F 93% 30.14 in 6.0 mi NNW 4.6 mph - N/A   Clear
8:51 AM 54.0 °F 51.1 °F 90% 30.14 in 8.0 mi North 4.6 mph - N/A   Mostly Cloudy
9:51 AM 55.0 °F 52.0 °F 89% 30.14 in 10.0 mi NE 3.5 mph - N/A   Mostly Cloudy
10:51 AM 57.0 °F 53.1 °F 87% 30.11 in 10.0 mi East 4.6 mph - N/A   Clear
11:51 AM 59.0 °F 53.1 °F 81% 30.09 in 10.0 mi NNE 3.5 mph - N/A   Mostly Cloudy
12:51 PM 59.0 °F 55.0 °F 87% 30.06 in 9.0 mi East 3.5 mph - 0.01 in Rain Light Rain
1:51 PM 57.9 °F 55.9 °F 93% 30.01 in 6.0 mi East 4.6 mph - 0.04 in Rain Light Rain
2:51 PM 59.0 °F 57.0 °F 93% 29.99 in 8.0 mi East 3.5 mph - 0.00 in Rain Light Rain
3:26 PM 60.1 °F 57.9 °F 93% 29.98 in 2.5 mi Calm Calm - 0.01 in Rain Rain
3:36 PM 60.1 °F 57.0 °F 90% 29.97 in 1.8 mi Calm Calm - 0.03 in Rain Rain
3:51 PM 60.1 °F 57.9 °F 93% 29.96 in 2.0 mi East 4.6 mph - 0.04 in Rain Light Rain
4:10 PM 60.1 °F 57.9 °F 93% 29.97 in 2.0 mi Calm Calm - 0.02 in Rain Light Rain
4:21 PM 60.1 °F 57.9 °F 93% 29.96 in 1.5 mi Calm Calm - 0.04 in Rain Heavy Rain
4:28 PM 59.0 °F 57.9 °F 96% 29.96 in 1.0 mi ESE 3.5 mph - 0.08 in Rain Rain
4:51 PM 60.1 °F 59.0 °F 96% 29.94 in 1.5 mi East 3.5 mph - 0.15 in Rain Light Rain
4:55 PM 60.1 °F 59.0 °F 96% 29.94 in 1.5 mi East 3.5 mph - 0.00 in Rain Light Rain
5:51 PM 61.0 °F 60.1 °F 97% 29.91 in 1.5 mi East 3.5 mph - 0.04 in   Overcast
6:07 PM 61.0 °F 60.1 °F 97% 29.91 in 2.0 mi ESE 3.5 mph - 0.00 in Rain Light Rain
6:51 PM 62.1 °F 61.0 °F 96% 29.91 in 7.0 mi SE 3.5 mph - 0.00 in   Overcast
6:58 PM 62.1 °F 60.1 °F 93% 29.91 in 7.0 mi SE 3.5 mph - N/A   Overcast
7:06 PM 62.1 °F 61.0 °F 96% 29.91 in 7.0 mi Calm Calm - N/A   Overcast
7:51 PM 63.0 °F 61.0 °F 93% 29.91 in 10.0 mi WSW 3.5 mph - N/A   Overcast
8:51 PM 63.0 °F 61.0 °F 93% 29.89 in 7.0 mi Calm Calm - 0.01 in Rain Light Rain
9:08 PM 62.1 °F 61.0 °F 96% 29.89 in 1.8 mi Calm Calm - 0.00 in   Overcast
9:22 PM 62.1 °F 61.0 °F 96% 29.89 in 2.5 mi Calm Calm - 0.00 in Rain Rain
9:46 PM 62.6 °F 60.8 °F 94% 29.88 in 1.0 mi Calm Calm - 0.05 in Rain Light Rain
9:51 PM 62.1 °F 61.0 °F 96% 29.88 in 1.8 mi Calm Calm - 0.06 in Rain Light Rain
10:51 PM 63.0 °F 62.1 °F 97% 29.87 in 5.0 mi Calm Calm - 0.00 in   Overcast
11:51 PM 62.1 °F 61.0 °F 96% 29.86 in 2.0 mi Calm Calm - 0.02 in Rain Light Rain